#timestamp,LO_Frequency,Hit,StdDev 
1620219615.6,286046995.9,N
1620219635.4,286046994.1,N
1620219655.3,286046996.1,N
1620219675.1,286046998.0,N
1620219695.9,286046999.0,N
1620219715.7,286046998.1,N
1620219735.5,286047002.6,N
1620219755.4,286047002.5,N
1620219775.2,286046999.8,N
1620219795.0,286046998.1,N
1620219795.9,286046998.1,N
1620219815.8,286046998.4,N
1620219835.6,286046998.5,N
1620219855.5,286046997.3,N
1620219875.3,286046995.0,N
1620219895.1,286046995.9,N
1620219915.9,286046993.8,N
1620219935.7,286046993.4,Y
1620219955.5,286046997.7,P
1620219975.4,286046995.5,P
1620219995.2,286046994.6,P
1620220015.1,286046994.5,Y
1620220016.0,286046994.5,P
1620220035.8,286046996.9,P
1620220055.6,286047001.2,N
1620220075.5,286047000.9,N
1620220095.3,286046998.7,N
1620220115.2,286046999.1,N
1620220135.9,286046997.7,N
1620220155.7,286046995.4,N
1620220175.6,286046997.8,N
1620220195.4,286046998.4,N
1620220215.2,286046998.8,N
1620220235.1,286046997.2,N
1620220236.0,286046997.2,N
1620220255.8,286046996.9,N
1620220275.6,286046995.4,N
1620220295.5,286046995.7,N
1620220315.3,286046999.1,N
1620220335.2,286046998.2,N
1620220355.9,286046998.6,N
1620220375.7,286046997.8,N
1620220395.6,286046995.8,N
1620220415.4,286046999.3,N
1620220435.2,286046999.0,N
1620220455.1,286047000.8,N
1620220456.0,286047000.8,N
1620220475.8,286047002.7,N
1620220495.7,286046999.7,N
1620220515.5,286046999.8,N
1620220535.4,286047000.7,N
1620220555.2,286046997.4,N
1620220575.0,286046995.3,N
1620220575.9,286046995.3,N
1620220595.8,286046995.3,N
1620220615.6,286046995.1,N
1620220635.4,286046993.4,Y
1620220655.3,286046996.1,P
1620220675.1,286046996.3,P
1620220695.9,286046996.4,P
1620220715.7,286046995.9,Y
1620220735.5,286046999.4,P
1620220755.4,286047001.2,N
1620220775.2,286047000.6,N
1620220795.0,286047005.4,Y
1620220795.9,286047005.4,P
1620220815.8,286047005.0,N
1620220835.6,286047006.3,N
1620220855.5,286047002.9,N
1620220875.3,286047004.1,N
1620220895.1,286047000.5,N
1620220915.9,286047002.0,N
1620220935.7,286047003.0,N
1620220955.6,286047007.5,Y
1620220975.4,286047002.0,P
1620220995.2,286047001.9,P
1620221015.1,286047002.2,P
1620221016.0,286047002.2,Y
1620221035.8,286047001.1,P
1620221055.6,286047000.0,N
1620221075.5,286046999.8,N
1620221095.3,286047004.2,Y
1620221115.2,286047002.0,P
1620221135.9,286047000.2,N
1620221155.7,286047000.9,N
1620221175.6,286047000.4,N
1620221195.4,286047000.0,N
1620221215.2,286047000.6,N
1620221235.1,286047002.3,Y
1620221236.0,286047002.3,P
1620221255.8,286047000.8,N
1620221275.7,286046999.2,N
1620221295.5,286046998.8,N
1620221315.3,286046999.9,N
1620221335.2,286047002.0,N
1620221355.0,286046999.7,N
1620221355.9,286046999.7,N
1620221375.7,286047002.5,N
1620221395.6,286047001.9,N
1620221415.4,286047004.3,Y
1620221435.3,286047002.0,P
1620221455.1,286047002.4,P
1620221475.8,286047002.1,N
1620221495.7,286047002.7,Y
1620221515.5,286047000.7,P
1620221535.4,286046998.2,P
1620221555.2,286047000.6,N
1620221575.0,286046999.6,N
1620221575.9,286046999.6,N
1620221595.8,286047001.1,N
1620221615.6,286046997.0,N
1620221635.4,286046995.0,Y
1620221655.3,286046999.4,P
1620221675.1,286047000.8,P
1620221695.9,286046999.6,N
1620221715.7,286046996.9,Y
1620221735.5,286046998.6,P
1620221755.4,286046998.8,N
1620221775.2,286046996.5,P
1620221795.0,286046996.5,N
1620221795.9,286046996.5,N
1620221815.8,286046999.6,N
1620221835.6,286046998.7,N
1620221855.5,286046998.4,N
1620221875.3,286047000.9,N
1620221895.1,286046998.3,N
1620221915.9,286047001.1,N
1620221935.7,286047002.2,N
1620221955.5,286047000.4,N
1620221975.4,286046998.8,N
1620221995.2,286046999.4,N
1620222015.1,286046999.6,N
1620222016.0,286046999.6,N
1620222035.8,286046997.1,N
1620222055.6,286046997.5,N
1620222075.5,286046996.6,N
1620222095.3,286047000.2,N
1620222115.1,286047002.3,N
1620222135.9,286046999.8,N
1620222155.7,286047000.5,N
1620222175.6,286047000.0,N
1620222195.4,286046998.1,N
1620222215.2,286047002.8,N
1620222235.1,286046998.1,N
1620222236.0,286046998.1,N
1620222255.8,286046998.1,N
1620222275.6,286047001.6,N
1620222295.5,286047004.0,N
1620222315.3,286047003.9,N
1620222335.2,286047001.3,N
1620222355.9,286047001.3,N
1620222375.7,286047001.4,N
1620222395.6,286047002.2,N
1620222415.4,286047000.4,N
1620222435.2,286046998.7,N
1620222455.1,286046999.5,N
1620222456.0,286046999.5,N
1620222475.8,286046998.8,N
1620222495.7,286047000.2,N
1620222515.6,286047002.6,N
1620222535.4,286046998.6,N
1620222555.2,286047001.0,N
1620222575.1,286047000.7,N
1620222576.0,286047000.7,N
1620222595.8,286047000.6,N
1620222615.6,286047004.4,N
1620222635.5,286047003.5,N
1620222655.3,286047001.3,N
1620222675.2,286047000.8,N
1620222695.9,286047001.9,N
1620222715.7,286047002.3,N
1620222735.6,286046998.1,N
1620222755.4,286047001.1,N
1620222775.2,286047000.1,N
1620222795.1,286047000.6,N
1620222796.0,286047000.6,N
1620222815.8,286047000.9,N
1620222835.7,286046997.0,N
1620222855.5,286046995.4,N
1620222875.3,286046999.4,N
1620222895.2,286047000.8,N
1620222915.0,286047000.7,N
1620222915.9,286047000.7,N
1620222935.8,286046998.6,N
1620222955.6,286046999.1,N
1620222975.4,286046998.8,N
1620222995.3,286046999.0,N
1620223015.1,286046998.5,N
1620223035.9,286047000.4,N
1620223055.7,286047001.1,N
1620223075.5,286046998.6,N
1620223095.4,286046998.7,N
1620223115.2,286046997.0,N
1620223135.0,286046996.5,N
1620223135.9,286046996.5,N
1620223155.8,286046998.0,N
1620223175.6,286046995.6,N
1620223195.5,286046997.2,N
